Lid_Strength_Index
3 3 3 3 3 3 3 3 2 2 2 2 2 2 2 3 2 2 2 2 3 3
3 3 3 3 3 3 3 2 2 2 2 2 2 2 2 2 2 2 3 2 3 2
3 3 2 2 3 3 2 2 2 2 2 2 2 2 2 2 2 2 3 2 2 2
3 2 2 2 2 3 3 2 2 2 2 2 2 2 2 2 2 2 2 2 2 2
2 2 2 3 3 2 2 2 2 2 2 2 1 2 2 2 1 2 2 2 2 2
3 3 3 3 2 2 2 2 2 2 2 2 2 2 2 2 2 2 2 1 2 2
3 3 3 3 2 2 2 2 2 1 1 1 2 1 1 1 2 2 1 1 1 1
3 2 2 2 2 2 2 1 1 1 2 2 2 2 2 2 2 2 2 1 1 1
2 2 2 2 2 2 2 2 2 2 3 3 3 8 6 3 2 2 2 2 2 2
2 2 2 2 2 3 3 3 3 3 4 4 5 9 9 7 2 3 3 3 2 2
2 2 2 2 3 3 4 4 4 4 4 5 5 9 9 7 3 3 2 2 2 3
2 2 3 3 3 3 3 3 4 4 5 4 4 10 8 4 2 2 2 1 2 3
2 2 2 3 3 3 3 2 2 3 3 6 4 11 9 4 2 3 3 3 3 7
2 2 3 3 3 3 3 3 3 3 3 5 5 6 10 8 3 3 3 3 3 4